CARTOSAT-2D

Last updated on Thu Nov 21 2024 00:02:27 GMT+0000 (Coordinated Universal Time)

1 41948U 17008A 24325.54884784 .00009447 00000+0 45065-3 0 9992 2 41948 97.4050 22.0093 0004894 77.8374 282.3409 15.19280487430482
UTC large
Height (km)
Speed (km/s)
/
Latitude / Longitude
Inclination (degrees)
Orbital Period (minutes)
Azimuth
Elevation
Range (km)
Doppler Factor

Next 0 passes for location: London (51.5072 / 0.1276)

Sorry there are no passes over London.